Location: Kumla
(59.1265°N, 15.1401°E)
Time: 09:48:25
(UTC+01:00)

Transit 2A - Pass Details

Date: 03 December 2023
Orbit: 600 x 953 km, 66.7° (Epoch: 22 February)

Event Time Altitude Azimuth Distance (km) Brightness Sun altitude
Rises 22:21:28 0° 306° (NW) 2,927 - -49.9°
Reaches altitude 10° 22:23:49 10° 312° (NW) 1,989 - -50.0°
Maximum altitude 22:28:10 54° 30° (NNE) 737 - -50.3°
Drops below altitude 10° 22:32:26 10° 109° (ESE) 1,950 - -50.6°
Sets 22:34:43 0° 114° (ESE) 2,864 - -50.7°
